Total_Precipitation_Accumulation
0.56 0.40 0.31 0.32 0.31 0.29 0.31 0.40 0.72 1.09 1.47 1.76 2.01 2.05 1.90 1.59 1.38 1.38 1.45 1.45 1.39 1.28 1.16 1.01 0.92 0.92 0.92 0.89 0.85 0.80 0.82 0.85 0.93 0.88 0.84 0.90 0.93 0.84 0.74 0.69 0.64 0.62 0.56 0.51
0.46 0.38 0.37 0.45 0.42 0.45 0.47 0.53 0.71 1.07 1.57 1.76 1.72 1.53 1.50 1.45 1.34 1.45 1.61 1.68 1.62 1.46 1.29 1.12 1.01 0.96 0.94 0.90 0.80 0.72 0.75 0.87 0.94 0.93 0.91 0.93 0.96 0.91 0.83 0.75 0.70 0.65 0.59 0.55
0.64 0.48 0.61 0.95 0.75 0.70 0.70 0.71 0.83 1.17 1.35 1.28 1.31 1.30 1.35 1.37 1.42 1.61 1.77 1.74 1.60 1.46 1.33 1.22 1.16 1.05 1.02 0.97 0.84 0.79 0.81 0.84 0.90 0.93 0.97 0.98 0.96 0.93 0.89 0.83 0.78 0.67 0.58 0.56
0.63 0.76 1.28 1.23 0.75 0.69 0.73 0.73 0.70 0.79 0.83 0.91 1.05 1.19 1.35 1.43 1.56 1.74 1.84 1.87 1.79 1.59 1.43 1.28 1.13 1.04 0.97 0.91 0.84 0.85 0.87 0.84 0.80 0.80 0.81 0.80 0.86 0.91 0.88 0.82 0.75 0.67 0.58 0.55
0.83 1.09 1.33 1.16 0.73 0.68 0.83 0.94 0.71 0.64 0.62 0.71 0.84 1.01 1.42 1.56 1.63 1.76 1.82 1.77 1.71 1.57 1.48 1.36 1.20 1.06 0.97 0.92 0.87 0.83 0.81 0.76 0.68 0.64 0.66 0.67 0.73 0.83 0.87 0.81 0.70 0.62 0.56 0.53
0.92 1.33 1.75 1.48 0.68 0.43 0.69 1.27 0.87 0.57 0.49 0.61 0.85 1.16 1.33 1.34 1.39 1.42 1.40 1.32 1.29 1.26 1.23 1.16 1.06 0.95 0.94 0.92 0.83 0.76 0.69 0.62 0.57 0.55 0.58 0.61 0.65 0.74 0.79 0.78 0.65 0.53 0.48 0.47
0.99 1.35 1.59 0.86 0.46 0.49 1.16 1.48 1.00 0.75 0.65 0.72 0.96 1.04 0.92 0.90 1.03 1.11 1.16 1.10 1.04 1.01 1.03 1.01 0.92 0.88 0.90 0.86 0.79 0.64 0.53 0.52 0.54 0.57 0.60 0.58 0.65 0.72 0.69 0.63 0.58 0.51 0.48 0.46
1.13 1.50 1.63 0.66 0.49 0.89 1.05 0.77 0.73 0.73 0.75 0.78 0.76 0.67 0.65 0.69 0.87 1.07 1.19 1.15 1.06 0.99 0.93 0.87 0.84 0.88 0.90 0.81 0.63 0.51 0.49 0.53 0.57 0.57 0.55 0.53 0.63 0.70 0.62 0.58 0.55 0.55 0.52 0.45
1.18 1.36 1.01 0.54 0.52 0.54 0.54 0.53 0.53 0.55 0.58 0.62 0.67 0.66 0.63 0.71 0.85 1.00 1.08 1.08 1.03 0.91 0.82 0.74 0.71 0.76 0.78 0.65 0.47 0.43 0.49 0.58 0.60 0.56 0.63 0.62 0.58 0.57 0.55 0.56 0.48 0.44 0.43 0.39
0.94 0.93 0.67 0.51 0.43 0.40 0.42 0.45 0.48 0.54 0.56 0.61 0.79 0.81 0.76 0.77 0.89 0.98 0.98 0.90 0.82 0.76 0.70 0.64 0.58 0.55 0.52 0.42 0.40 0.46 0.55 0.57 0.56 0.59 0.70 0.68 0.56 0.45 0.41 0.40 0.37 0.35 0.36 0.36
1.17 1.06 0.80 0.55 0.44 0.45 0.44 0.48 0.55 0.63 0.63 0.65 0.71 0.77 0.79 0.78 0.79 0.80 0.75 0.70 0.63 0.63 0.60 0.51 0.46 0.41 0.34 0.30 0.36 0.47 0.50 0.53 0.53 0.56 0.61 0.63 0.51 0.36 0.31 0.26 0.21 0.23 0.26 0.27
1.48 1.16 1.03 0.78 0.60 0.61 0.61 0.61 0.61 0.58 0.54 0.56 0.55 0.56 0.61 0.64 0.64 0.61 0.60 0.57 0.56 0.53 0.50 0.44 0.41 0.37 0.31 0.27 0.32 0.44 0.48 0.45 0.41 0.43 0.44 0.44 0.42 0.37 0.24 0.13 0.10 0.10 0.11 0.14
1.16 0.92 0.82 0.77 0.70 0.70 0.64 0.51 0.45 0.42 0.37 0.42 0.46 0.44 0.45 0.46 0.46 0.46 0.46 0.45 0.45 0.41 0.37 0.38 0.36 0.31 0.29 0.27 0.28 0.34 0.43 0.43 0.34 0.31 0.33 0.33 0.33 0.39 0.35 0.20 0.09 0.07 0.06 0.08
0.78 0.74 0.72 0.57 0.43 0.36 0.29 0.27 0.28 0.29 0.28 0.27 0.30 0.32 0.32 0.32 0.32 0.34 0.38 0.39 0.35 0.30 0.27 0.29 0.30 0.27 0.24 0.24 0.26 0.29 0.30 0.27 0.27 0.31 0.29 0.27 0.25 0.26 0.29 0.33 0.30 0.22 0.12 0.09
0.48 0.49 0.42 0.28 0.19 0.18 0.18 0.19 0.25 0.27 0.25 0.26 0.24 0.24 0.23 0.25 0.27 0.28 0.31 0.32 0.28 0.26 0.25 0.25 0.26 0.23 0.19 0.17 0.20 0.26 0.27 0.24 0.23 0.24 0.23 0.20 0.18 0.18 0.21 0.25 0.27 0.27 0.24 0.17
0.29 0.26 0.23 0.19 0.19 0.17 0.18 0.19 0.24 0.23 0.22 0.22 0.23 0.22 0.20 0.19 0.19 0.23 0.26 0.27 0.26 0.28 0.27 0.24 0.22 0.18 0.14 0.14 0.16 0.17 0.16 0.15 0.18 0.20 0.18 0.15 0.14 0.15 0.18 0.22 0.25 0.25 0.26 0.24
0.26 0.23 0.19 0.19 0.18 0.18 0.18 0.18 0.19 0.18 0.18 0.17 0.17 0.15 0.14 0.15 0.18 0.22 0.23 0.22 0.22 0.22 0.22 0.20 0.16 0.13 0.11 0.11 0.12 0.11 0.12 0.13 0.14 0.14 0.12 0.11 0.10 0.10 0.12 0.16 0.20 0.23 0.19 0.18
0.24 0.22 0.20 0.19 0.18 0.18 0.16 0.15 0.16 0.14 0.13 0.11 0.10 0.10 0.11 0.13 0.17 0.19 0.18 0.17 0.16 0.16 0.16 0.14 0.12 0.11 0.10 0.10 0.09 0.08 0.10 0.12 0.13 0.11 0.11 0.10 0.09 0.09 0.09 0.10 0.13 0.18 0.18 0.16
0.22 0.21 0.17 0.16 0.15 0.15 0.13 0.12 0.12 0.11 0.10 0.09 0.08 0.09 0.10 0.13 0.14 0.14 0.15 0.16 0.17 0.17 0.15 0.11 0.09 0.10 0.10 0.08 0.10 0.10 0.10 0.11 0.12 0.11 0.10 0.09 0.09 0.09 0.09 0.09 0.10 0.14 0.15 0.17
0.17 0.19 0.16 0.12 0.11 0.12 0.12 0.11 0.09 0.09 0.09 0.08 0.08 0.09 0.11 0.11 0.11 0.11 0.12 0.15 0.15 0.12 0.11 0.10 0.10 0.09 0.08 0.07 0.08 0.10 0.09 0.09 0.10 0.11 0.10 0.09 0.08 0.07 0.06 0.06 0.07 0.09 0.13 0.15
0.14 0.16 0.13 0.10 0.11 0.13 0.13 0.11 0.10 0.10 0.10 0.09 0.08 0.09 0.11 0.10 0.10 0.09 0.09 0.11 0.10 0.08 0.08 0.07 0.08 0.08 0.08 0.08 0.07 0.08 0.08 0.09 0.08 0.08 0.08 0.08 0.07 0.06 0.05 0.05 0.07 0.08 0.10 0.13
0.16 0.18 0.14 0.11 0.14 0.15 0.15 0.14 0.11 0.10 0.09 0.09 0.09 0.10 0.11 0.10 0.09 0.08 0.07 0.07 0.07 0.06 0.09 0.09 0.08 0.07 0.07 0.07 0.06 0.06 0.06 0.06 0.06 0.05 0.05 0.06 0.05 0.04 0.04 0.05 0.07 0.08 0.09 0.11
0.20 0.17 0.14 0.13 0.14 0.16 0.15 0.13 0.11 0.11 0.10 0.10 0.10 0.10 0.10 0.08 0.08 0.08 0.07 0.05 0.04 0.04 0.07 0.09 0.08 0.06 0.05 0.04 0.04 0.05 0.05 0.05 0.04 0.04 0.04 0.04 0.04 0.04 0.04 0.05 0.06 0.06 0.08 0.09
0.24 0.20 0.16 0.12 0.14 0.17 0.17 0.15 0.12 0.11 0.11 0.11 0.10 0.09 0.10 0.09 0.08 0.07 0.05 0.04 0.03 0.03 0.04 0.05 0.06 0.05 0.04 0.03 0.03 0.04 0.04 0.04 0.03 0.03 0.03 0.03 0.04 0.05 0.05 0.04 0.03 0.04 0.05 0.06
0.29 0.24 0.18 0.16 0.19 0.20 0.19 0.17 0.14 0.12 0.12 0.13 0.11 0.09 0.09 0.09 0.09 0.07 0.05 0.05 0.05 0.05 0.04 0.03 0.04 0.05 0.04 0.03 0.03 0.03 0.03 0.03 0.03 0.03 0.03 0.04 0.05 0.04 0.03 0.03 0.03 0.04 0.05 0.05
0.37 0.33 0.26 0.22 0.20 0.19 0.19 0.19 0.16 0.14 0.15 0.15 0.12 0.10 0.09 0.08 0.06 0.05 0.05 0.04 0.05 0.05 0.03 0.03 0.03 0.04 0.04 0.03 0.03 0.03 0.03 0.03 0.03 0.04 0.05 0.05 0.04 0.02 0.02 0.02 0.04 0.04 0.04 0.04
0.44 0.39 0.34 0.24 0.18 0.18 0.20 0.21 0.18 0.15 0.13 0.13 0.12 0.10 0.08 0.07 0.06 0.05 0.05 0.05 0.05 0.05 0.04 0.03 0.03 0.03 0.03 0.03 0.03 0.03 0.03 0.03 0.04 0.05 0.04 0.02 0.02 0.03 0.03 0.03 0.04 0.05 0.05 0.04